Weather History for Mammoth, CA

Change the Weather History Date:

Monday, February 11, 2013

  Actual Average Record
Temperature  
Mean Temperature 22 °F -  
Max Temperature 37 °F 35 °F 57 °F (2014)
Min Temperature 8 °F 21 °F 5 °F (2011)
Degree Days  
Heating Degree Days 42    
Moisture  
Dew Point 6 °F    
Average Humidity 55    
Maximum Humidity 86    
Minimum Humidity 17    
Precipitation  
Precipitation 0.00 in - - ()
Sea Level Pressure  
Sea Level Pressure 30.13 in    
Wind  
Wind Speed 6 mph (WNW)    
Max Wind Speed 10 mph    
Max Gust Speed 17 mph    
Visibility 10 miles    
Events      
Averages and records for this station are not official NWS values.
T = Trace of Precipitation, MM = Missing Value Source: NWS Daily Summary

Daily Weather History Graph

Daily Weather History Graph

Search for Another Location

Airport:

Trip Planner

Search our weather history database for the weather conditions in past years. The results will help you decide how hot, cold, wet, or windy it might be!

Date:

Astronomy

Feb. 11, 2013 Rise Set
Actual Time 6:48 AM PST 5:30 PM PST
Civil Twilight 6:21 AM PST 5:57 PM PST
Nautical Twilight 5:51 AM PST 6:28 PM PST
Astronomical Twilight 5:20 AM PST 6:59 PM PST
Moon 7:19 AM PST 7:29 PM PST
Length of Visible Light 11h 35m
Length of Day
10h 41m
Waxing Crescent, 3% of the Moon is Illuminated
Feb 11
Waxing Crescent
Feb 17
First Quarter
Feb 25
Full
Mar 4
Last Quarter
Mar 11
New

Hourly Weather History & Observations

Time (PST) Temp. Windchill Dew Point Humidity Pressure Visibility Wind Dir Wind Speed Gust Speed Precip Events Conditions
12:15 AM 19.4 °F 9.5 °F 14.0 °F 80% 30.05 in 10.0 mi West 8.1 mph - N/A   Mostly Cloudy
12:35 AM 17.6 °F 10.7 °F 14.0 °F 86% 30.05 in 10.0 mi WNW 4.6 mph - N/A   Scattered Clouds
12:55 AM 15.8 °F - 12.2 °F 86% 30.05 in 10.0 mi North - - N/A   Clear
1:15 AM 15.8 °F 7.2 °F 12.2 °F 86% 30.05 in 10.0 mi WNW 5.8 mph - N/A   Clear
1:35 AM 17.6 °F 8.2 °F 10.4 °F 73% 30.05 in 10.0 mi WSW 6.9 mph - N/A   Clear
1:55 AM 17.6 °F - 10.4 °F 73% 30.05 in 10.0 mi Calm Calm - N/A   Clear
2:15 AM 14.0 °F 8.2 °F 8.6 °F 79% 30.07 in 10.0 mi WNW 3.5 mph - N/A   Clear
2:35 AM 15.8 °F 6.1 °F 10.4 °F 79% 30.07 in 10.0 mi West 6.9 mph - N/A   Clear
2:55 AM 15.8 °F 6.1 °F 8.6 °F 73% 30.07 in 10.0 mi West 6.9 mph - N/A   Clear
3:15 AM 15.8 °F 5.1 °F 8.6 °F 73% 30.07 in 10.0 mi West 8.1 mph - N/A   Clear
3:35 AM 17.6 °F 6.4 °F 6.8 °F 63% 30.05 in 10.0 mi WSW 9.2 mph - N/A   Clear
3:55 AM 15.8 °F 7.2 °F 6.8 °F 68% 30.05 in 10.0 mi West 5.8 mph - N/A   Clear
4:15 AM 14.0 °F 5.1 °F 6.8 °F 73% 30.05 in 10.0 mi WNW 5.8 mph - N/A   Clear
4:35 AM 12.2 °F 1.7 °F 6.8 °F 79% 30.05 in 10.0 mi WNW 6.9 mph - N/A   Clear
4:55 AM 12.2 °F 1.7 °F 5.0 °F 73% 30.05 in 10.0 mi WNW 6.9 mph - N/A   Clear
5:15 AM 10.4 °F 4.0 °F 5.0 °F 79% 30.05 in 10.0 mi WNW 3.5 mph - N/A   Clear
5:35 AM 10.4 °F - 5.0 °F 79% 30.05 in 10.0 mi Calm Calm - N/A   Clear
5:55 AM 10.4 °F 2.2 °F 5.0 °F 79% 30.06 in 10.0 mi North 4.6 mph - N/A   Clear
6:15 AM 10.4 °F - 3.2 °F 73% 30.07 in 10.0 mi Calm Calm - N/A   Clear
6:35 AM 8.6 °F 2.0 °F 3.2 °F 79% 30.07 in 10.0 mi North 3.5 mph - N/A   Clear
6:55 AM 8.6 °F 2.0 °F 3.2 °F 79% 30.08 in 10.0 mi NNW 3.5 mph - N/A   Clear
7:15 AM 8.6 °F 0.1 °F 3.2 °F 79% 30.09 in 10.0 mi NNE 4.6 mph - N/A   Clear
7:35 AM 10.4 °F 2.2 °F 5.0 °F 79% 30.10 in 10.0 mi NW 4.6 mph - N/A   Clear
7:55 AM 14.0 °F 5.1 °F 5.0 °F 67% 30.11 in 10.0 mi WNW 5.8 mph - N/A   Clear
8:15 AM 15.8 °F 5.1 °F 6.8 °F 68% 30.13 in 10.0 mi West 8.1 mph - N/A   Clear
8:35 AM 19.4 °F 9.5 °F 6.8 °F 58% 30.13 in 10.0 mi West 8.1 mph - N/A   Clear
8:55 AM 23.0 °F 14.7 °F 5.0 °F 46% 30.13 in 10.0 mi West 6.9 mph - N/A   Clear
9:15 AM 23.0 °F 13.9 °F 5.0 °F 46% 30.13 in 10.0 mi West 8.1 mph - N/A   Clear
9:35 AM 24.8 °F 15.3 °F 5.0 °F 43% 30.13 in 10.0 mi WNW 9.2 mph - N/A   Clear
9:55 AM 26.6 °F 19.1 °F 5.0 °F 40% 30.13 in 10.0 mi NW 6.9 mph - N/A   Clear
10:15 AM 26.6 °F 19.1 °F 5.0 °F 40% 30.13 in 10.0 mi WNW 6.9 mph - N/A   Clear
10:35 AM 28.4 °F 22.2 °F 3.2 °F 34% 30.14 in 10.0 mi NW 5.8 mph - N/A   Clear
11:15 AM 32.0 °F 24.2 °F -4.0 °F 21% 30.14 in 10.0 mi North 9.2 mph - N/A   Clear
11:35 AM 32.0 °F - -2.2 °F 23% 30.14 in 10.0 mi North - - N/A   Clear
11:55 AM 32.0 °F 27.5 °F -2.2 °F 23% 30.14 in 10.0 mi NW 4.6 mph - N/A   Clear
12:15 PM 32.0 °F - -0.4 °F 25% 30.13 in 10.0 mi North - - N/A   Clear
12:35 PM 32.0 °F 26.4 °F -2.2 °F 23% 30.12 in 10.0 mi WSW 5.8 mph - N/A   Clear
12:55 PM 33.8 °F 30.8 °F -7.6 °F 17% 30.12 in 10.0 mi WNW 3.5 mph - N/A   Clear
1:15 PM 35.6 °F - -5.8 °F 17% 30.13 in 10.0 mi North - - N/A   Clear
1:35 PM 35.6 °F 28.6 °F -5.8 °F 17% 30.12 in 10.0 mi NNW 9.2 mph 17.3 mph N/A   Clear
2:55 PM 35.6 °F 29.2 °F -4.0 °F 18% 30.12 in 10.0 mi West 8.1 mph - N/A   Clear
3:15 PM 35.6 °F 30.7 °F -4.0 °F 18% 30.12 in 10.0 mi NW 5.8 mph - N/A   Clear
3:35 PM 37.4 °F - -2.2 °F 19% 30.12 in 10.0 mi North - - N/A   Clear
3:55 PM 35.6 °F 29.2 °F -2.2 °F 20% 30.12 in 10.0 mi WNW 8.1 mph - N/A   Clear
4:15 PM 35.6 °F 31.7 °F -0.4 °F 22% 30.12 in 10.0 mi WNW 4.6 mph - N/A   Clear
4:35 PM 35.6 °F 30.7 °F 1.4 °F 24% 30.13 in 10.0 mi WNW 5.8 mph - N/A   Clear
4:55 PM 33.8 °F 30.8 °F 1.4 °F 25% 30.14 in 10.0 mi West 3.5 mph - N/A   Clear
5:35 PM 28.4 °F 22.2 °F 8.6 °F 43% 30.13 in 10.0 mi West 5.8 mph - N/A   Clear
5:55 PM 28.4 °F 22.2 °F 8.6 °F 43% 30.15 in 10.0 mi WSW 5.8 mph - N/A   Clear
6:15 PM 24.8 °F 17.9 °F 10.4 °F 54% 30.16 in 10.0 mi WNW 5.8 mph - N/A   Clear
6:35 PM 24.8 °F 16.1 °F 10.4 °F 54% 30.17 in 10.0 mi WNW 8.1 mph - N/A   Clear
6:55 PM 26.6 °F 21.2 °F 10.4 °F 51% 30.18 in 10.0 mi NW 4.6 mph - N/A   Clear
7:15 PM 26.6 °F 17.5 °F 10.4 °F 51% 30.18 in 10.0 mi West 9.2 mph - N/A   Clear
7:35 PM 24.8 °F 19.1 °F 10.4 °F 54% 30.20 in 10.0 mi West 4.6 mph - N/A   Clear
7:55 PM 24.8 °F 16.9 °F 12.2 °F 59% 30.21 in 10.0 mi West 6.9 mph - N/A   Clear
8:15 PM 24.8 °F 16.1 °F 10.4 °F 54% 30.21 in 10.0 mi West 8.1 mph - N/A   Clear
8:35 PM 24.8 °F 16.1 °F 10.4 °F 54% 30.21 in 10.0 mi West 8.1 mph - N/A   Clear
9:15 PM 23.0 °F 14.7 °F 12.2 °F 63% 30.23 in 10.0 mi West 6.9 mph - N/A   Clear
9:35 PM 23.0 °F 15.8 °F 10.4 °F 59% 30.23 in 10.0 mi West 5.8 mph - N/A   Clear
9:55 PM 19.4 °F 14.3 °F 10.4 °F 68% 30.23 in 10.0 mi NNW 3.5 mph - N/A   Clear
10:15 PM 21.2 °F - 10.4 °F 63% 30.23 in 10.0 mi Calm Calm - N/A   Clear
10:35 PM 19.4 °F - 10.4 °F 68% 30.23 in 10.0 mi Calm Calm - N/A   Clear
10:55 PM 19.4 °F 9.5 °F 10.4 °F 68% 30.23 in 10.0 mi West 8.1 mph - N/A   Clear
11:15 PM 19.4 °F - 10.4 °F 68% 30.23 in 10.0 mi Calm Calm - N/A   Clear
11:35 PM 19.4 °F 7.9 °F 10.4 °F 68% 30.23 in 10.0 mi WNW 10.4 mph - N/A   Clear
11:55 PM 19.4 °F 12.8 °F 10.4 °F 68% 30.23 in 10.0 mi West 4.6 mph - N/A   Clear